Time,TemperatureF,DewpointF,PressureIn,WindDirection,WindDirectionDegrees,WindSpeedMPH,WindSpeedGustMPH,Humidity,HourlyPrecipIn,Conditions,Clouds,dailyrainin,SoftwareType,DateUTC
2013-10-11 01:43:00,43.0,42.0,30.31,NNW,337,0.0,0.0,98,-99.99,,,0.00,,2013-10-11 05:43:00,
2013-10-11 01:52:00,43.0,42.0,30.31,NNW,337,0.0,0.0,98,-99.99,,,0.00,,2013-10-11 05:52:00,
2013-10-11 02:02:00,43.0,42.0,30.31,NNW,337,0.0,0.0,98,-99.99,,,0.00,,2013-10-11 06:02:00,
2013-10-11 02:43:00,43.0,43.0,30.31,WSW,247,0.0,3.0,100,-99.99,,,0.00,,2013-10-11 06:43:00,
2013-10-11 02:52:00,43.0,43.0,30.31,WSW,247,0.0,3.0,100,-99.99,,,0.00,,2013-10-11 06:52:00,
2013-10-11 03:02:00,43.0,43.0,30.31,WSW,247,0.0,3.0,100,-99.99,,,0.00,,2013-10-11 07:02:00,
2013-10-11 03:52:00,43.0,42.0,30.31,SW,225,3.0,5.0,98,-99.99,,,0.00,,2013-10-11 07:52:00,
2013-10-11 04:03:00,43.0,42.0,30.31,SW,225,3.0,5.0,98,-99.99,,,0.00,,2013-10-11 08:03:00,
2013-10-11 04:52:00,42.0,42.0,30.32,WSW,247,0.0,5.0,100,-99.99,,,0.00,,2013-10-11 08:52:00,
2013-10-11 05:02:00,42.0,42.0,30.32,WSW,247,0.0,5.0,100,-99.99,,,0.00,,2013-10-11 09:02:00,
2013-10-11 05:54:00,41.0,41.0,30.33,WSW,247,3.0,4.0,100,-99.99,,,0.00,,2013-10-11 09:54:00,
2013-10-11 06:03:00,41.0,41.0,30.33,WSW,247,3.0,4.0,100,-99.99,,,0.00,,2013-10-11 10:03:00,
2013-10-11 06:53:00,40.0,40.0,30.35,West,270,1.0,5.0,100,-99.99,,,0.00,,2013-10-11 10:53:00,
2013-10-11 07:03:00,40.0,40.0,30.35,West,270,1.0,5.0,100,-99.99,,,0.00,,2013-10-11 11:03:00,
2013-10-11 07:42:00,39.0,35.0,30.35,SSW,202,1.0,6.0,84,-99.99,,,0.00,,2013-10-11 11:42:00,
2013-10-11 07:52:00,39.0,35.0,30.35,SSW,202,1.0,6.0,84,-99.99,,,0.00,,2013-10-11 11:52:00,
2013-10-11 08:02:00,39.0,35.0,30.35,SSW,202,1.0,6.0,84,-99.99,,,0.00,,2013-10-11 12:02:00,
2013-10-11 11:04:00,61.0,43.0,30.29,West,270,5.0,10.0,52,-99.99,,,0.00,,2013-10-11 15:04:00,
2013-10-11 11:44:00,61.0,43.0,30.29,West,270,5.0,10.0,52,-99.99,,,0.00,,2013-10-11 15:44:00,
2013-10-11 11:54:00,61.0,43.0,30.29,West,270,5.0,10.0,52,-99.99,,,0.00,,2013-10-11 15:54:00,
2013-10-11 12:53:00,65.0,56.0,30.29,NW,315,4.0,11.0,74,-99.99,,,0.00,,2013-10-11 16:53:00,
2013-10-11 13:03:00,65.0,56.0,30.29,NW,315,4.0,11.0,74,-99.99,,,0.00,,2013-10-11 17:03:00,
2013-10-11 13:53:00,67.0,60.0,30.25,West,270,6.0,10.0,77,-99.99,,,0.00,,2013-10-11 17:53:00,
2013-10-11 14:02:00,67.0,60.0,30.25,West,270,6.0,10.0,77,-99.99,,,0.00,,2013-10-11 18:02:00,
2013-10-11 15:52:00,69.0,61.0,30.22,SSW,202,7.0,15.0,75,-99.99,,,0.00,,2013-10-11 19:52:00,
2013-10-11 16:02:00,69.0,61.0,30.22,SSW,202,7.0,15.0,75,-99.99,,,0.00,,2013-10-11 20:02:00,
2013-10-11 16:43:00,65.0,56.0,30.24,NW,315,10.0,19.0,72,-99.99,,,0.00,,2013-10-11 20:43:00,
2013-10-11 16:53:00,65.0,56.0,30.24,NW,315,10.0,19.0,72,-99.99,,,0.00,,2013-10-11 20:53:00,
2013-10-11 17:03:00,65.0,56.0,30.24,NW,315,10.0,19.0,72,-99.99,,,0.00,,2013-10-11 21:03:00,
2013-10-11 17:04:00,64.0,52.0,30.26,WNW,292,8.0,21.0,64,-99.99,,,0.00,,2013-10-11 21:04:00,
2013-10-11 17:55:00,64.0,52.0,30.26,WNW,292,8.0,21.0,64,-99.99,,,0.00,,2013-10-11 21:55:00,
2013-10-11 18:54:00,61.0,47.0,30.28,West,270,4.0,11.0,59,-99.99,,,0.00,,2013-10-11 22:54:00,
2013-10-11 19:03:00,61.0,47.0,30.28,West,270,4.0,11.0,59,-99.99,,,0.00,,2013-10-11 23:03:00,